WMKPWMKL

Guest
Details From WMKP - Penang Intl
To WMKL - Langkawi Intl
Flight Number -
Tags decoded
Created
Modified
Stats Distance 70 nm / 130 km
Max Altitude 0 ft / 0 m
Waypoints 3
Social Downloads 0
Likes 0
Share VATSIM

Download

Looking for another format? Having issues loading an existing format? Contact us
Advertisement - Login to hide

Notes

Requested: WMKP GOMAT WMKL

Route

WMKP GOMAT WMKL

ID Type Via Altitude Latitude Longitude Leg Dist Tot Dist Heading (true) Name
O WMKP APT - 0 ft / 0 m 5.29714˚ 100.27686˚ - 0 nm - Penang Intl
GOMAT FIX - 0 ft / 0 m 5.95333˚ 99.93889˚ 44 nm 44 nm 333° / 333° -
O WMKL APT - 0 ft / 0 m 6.32973˚ 99.72866˚ 25 nm 70 nm 331° / 331° Langkawi Intl

Altitude Profile

Advertisement - Login to hide

WMKP

Details ICAO WMKP (PEN)
Name Penang Intl
Region Malaysia (Peninsular Malaysia)
Timezone Asia/Kuala_Lumpur (UTC+8.0)
Stats Elevation 11 ft / 3 m (AMSL)
Location 5.297141° 100.276865°
Runways 1
Magnetic Variation 0.206° W

METAR

WMKP 122200Z VRB02KT 8000 FEW025 SCT140 BKN270 25/23 Q1010 NOSIG

Decode

TAF

TAF WMKP 121100Z 1212/1312 03005KT 9000 FEW025 SCT140 BKN270

Decode

Departure Runways

ID Width Length Bearing (true) Bearing (mag) Surface Threshold Offset Overrun Length
04 150 ft / 46 m 11,042 ft / 3,366 m 42.02° 42.23° Asphalt 0 ft / 0 m 205 ft / 62 m
22 150 ft / 46 m 11,042 ft / 3,366 m 222.02° 222.23° Asphalt 0 ft / 0 m 205 ft / 62 m

WMKL

Details ICAO WMKL (LGK)
Name Langkawi Intl
Region Malaysia (Peninsular Malaysia)
Timezone Asia/Kuala_Lumpur (UTC+8.0)
Stats Elevation 29 ft / 9 m (AMSL)
Location 6.329726° 99.728665°
Runways 1
Magnetic Variation 0.282° W

METAR

WMKL 122100Z 07003KT 030V100 9999 FEW025 SCT140 BKN270 25/22 Q1010

Decode

TAF

TAF WMKL 121100Z 1212/1312 04005KT 9999 FEW022 BKN270

Decode

Destination Runways

ID Width Length Bearing (true) Bearing (mag) Surface Threshold Offset Overrun Length
03 148 ft / 45 m 12,543 ft / 3,823 m 34.19° 34.47° Asphalt 2,000 ft / 610 m 193 ft / 59 m
21 148 ft / 45 m 12,543 ft / 3,823 m 214.20° 214.48° Asphalt 0 ft / 0 m 175 ft / 53 m

Approach Navaids

Runway Type Ident Frequency Range Bearing (true) Bearing (mag) Slope Elevation
03 Localiser ILK 110.70 MHz 18 nm / 33 km 35.68° 35.96° - 29 ft / 9 m (AMSL)
03 Glidescope ILK 110.70 MHz 10 nm / 19 km 34.19° 34.48° 3.00° 29 ft / 9 m (AMSL)
03 DME ILK 110.70 MHz 18 nm / 33 km - - - 29 ft / 9 m (AMSL)

Popular Alternatives